Location: Asheville, NC
(35.6000°N, 82.5500°W)
Time: 23:26:07
(UTC-04:00)

Vanguard 1 Rocket - Pass Details

Date: 16 December 2017
Orbit: 653 x 4224 km, 34.3° (Epoch: 17 June)

Event Time Altitude Azimuth Distance (km) Brightness Sun altitude
Rises 00:44:38 0° 283° (WNW) 7,266 12.0 -77.1°
Enters shadow 00:49:03 - 276° (W) 6,768 11.7 -76.7°
Reaches altitude 10° 00:50:06 10° 274° (W) 6,663 - -76.6°
Maximum altitude 01:08:16 29° 224° (SW) 5,869 - -74.7°
Drops below altitude 10° 01:27:50 10° 173° (S) 7,018 - -71.8°
Exits shadow 01:29:30 - 170° (S) 7,182 11.8 -71.5°
Sets 01:34:05 0° 163° (SSE) 7,671 12.1 -70.8°
